Location: *
(46.0770°N, 1.6444°E)
Time: 04:39:15
(UTC+00:00)

H-2A R/B - Pass Details

Date: 16 September 2019
Orbit: 734 x 836 km, 98.3° (Epoch: 18 October)

Event Time Altitude Azimuth Distance (km) Brightness Sun altitude
Exits shadow 18:26:02 - 113° (ESE) 2,715 4.2 -4.7°
Reaches altitude 10° 18:27:36 10° 102° (ESE) 2,248 3.7 -5.0°
Maximum altitude 18:30:54 18° 60° (ENE) 1,759 3.5 -5.5°
Drops below altitude 10° 18:34:16 10° 17° (NNE) 2,285 4.4 -6.1°
Sets 18:37:13 0° 360° (N) 3,231 5.4 -6.6°
